This is the latest recevied weather packets stored in our database for station/object R2AJV-13. If no packets are shown the sender has not sent any weather packets the latest 10 day(s).
| Time | Temp. | Humidity | Pressure | Rain* | Wind** | Luminosity | Snow |
|---|---|---|---|---|---|---|---|
| 1787951751 | 8.33° C | 99% | 1013.6 hPa | 0 mm | - | - | - |
| 1787950867 | 7.78° C | 99% | 1013.6 hPa | 0 mm | - | - | - |
| 1787949962 | 7.78° C | 99% | 1013.5 hPa | 0 mm | - | - | - |
| 1787949052 | 7.78° C | 99% | 1013.3 hPa | 0 mm | - | - | - |
| 1787948141 | 7.78° C | 99% | 1013.3 hPa | 0 mm | - | - | - |
| 1787947230 | 7.78° C | 99% | 1013.2 hPa | 0 mm | - | - | - |
| 1787946326 | 8.33° C | 99% | 1012.9 hPa | 0 mm | - | - | - |
| 1787945474 | 8.33° C | 99% | 1012.8 hPa | 0 mm | - | - | - |
| 1787944564 | 8.33° C | 99% | 1012.6 hPa | 0 mm | - | - | - |
| 1787943653 | 8.89° C | 99% | 1012.5 hPa | 0 mm | - | - | - |
| 1787942743 | 9.44° C | 99% | 1012.4 hPa | 0 mm | - | - | - |
| 1787941837 | 9.44° C | 99% | 1012.4 hPa | 0 mm | - | - | - |
| 1787940928 | 10° C | 99% | 1012.4 hPa | 0 mm | - | - | - |
| 1787940016 | 10.56° C | 99% | 1012.5 hPa | 0 mm | - | - | - |
| 1787939166 | 10.56° C | 99% | 1012.4 hPa | 0 mm | - | - | - |
| 1787938261 | 11.11° C | 98% | 1012.4 hPa | 0 mm | - | - | - |
| 1787937352 | 11.67° C | 98% | 1012.4 hPa | 0 mm | - | - | - |
| 1787936468 | 11.67° C | 97% | 1012.5 hPa | 0 mm | - | - | - |
| 1787935562 | 12.78° C | 96% | 1012.3 hPa | 0 mm | - | - | - |
| 1787934652 | 13.33° C | 94% | 1012.2 hPa | 0 mm | - | - | - |
| 1787933741 | 13.89° C | 90% | 1012.2 hPa | 0 mm | - | - | - |
| 1787932831 | 15° C | 86% | 1012.1 hPa | 0 mm | - | - | - |
| 1787931925 | 16.11° C | 80% | 1012.1 hPa | 0 mm | - | - | - |
| 1787931075 | 16.67° C | 78% | 1012.2 hPa | 0 mm | - | - | - |
| 1787930164 | 17.78° C | 72% | 1012.3 hPa | 0 mm | - | - | - |
* Rain latest hour (hover to see other rain measurements)
** Current wind speed in m/s (hover to see current wind gust speed)